User: anonymous   Login
Location: Ferma
(41.9500°N, 44.5167°E)
Time: 02:29:28
(UTC+00:00)
Language:

Cosmos 371 Rocket - Orbit

View from above orbital plane
View from above orbital plane
View from above satellite
View from above satellite

Ground track
Ground track

The orbit data is extracted from the following two-line orbital elements,

1 04579U 70083B   22020.55952362  .00000204  00000-0  48176-4 0  9992
2 04579  74.0027 120.3465 0009170  79.3337 280.8861 14.60578353719728
Epoch (UTC): 20 January 2022 13:25:42
Eccentricity: 0.0009170
inclination: 74.0027°
perigee height: 685 km
apogee height: 698 km
right ascension of ascending node: 120.3465°
argument of perigee: 79.3337°
revolutions per day: 14.60578353
mean anomaly at epoch: 280.8861°
orbit number at epoch: 71972

The dashed part of the orbit path shows where the satellite is in the earth's shadow,  

DLR